Weather in Yarki

Russia / Novosibirsk Oblast     54°47′29″N   79°43′33″E
temp.,
°C
wind,
m/s
gust,
m/s
humid.,
%
clouds,
%
prec.,
mm/h
press.,
hPa
HPBL,
m
23 january, sat
sat2301:00−25sw4797100 0.0 1023251
04:00−24sw4797100 0.1 1025306
07:00−25ssw4797100 0.1 1026218
10:00−23ssw4897100 0.1 1028263
13:00−22ssw4796100 0.1 1029321
16:00−19sw3695100 0.1 1029453
19:00−21wsw2399100 0.3 102966
22:00−22w2399100 0.1 103043
24 january, sun
sun2401:00−23wnw2399100 0.3 103064
04:00−25nw3599100 0.1 1032140
07:00−28wnw4697100 0.2 1033207
10:00−35wnw349791 0.0 103655
13:00−34wnw369657 0.0 1038198
16:00−34wnw369418 0.0 1039292
19:00−38w349616 0.0 104143
22:00−40wnw239620 0.0 104321
25 january, mon
mon2501:00−42wnw229620 0.0 104418
04:00−43wnw12964 0.0 104618
07:00−44wnw11972 0.0 104618
10:00−44wsw00960 0.0 104718
13:00−39s11910 0.0 104765
16:00−36e119089 0.0 1047108
19:00−40e229369 0.0 104718
22:00−40e229242 0.0 104718
26 january, tue
tue2601:00−39e229059 0.0 104618
04:00−38e229086 0.0 104618
07:00−39ene339064 0.0 104622
10:00−39e33900 0.0 104730
13:00−35ene23900 0.0 1047117
16:00−34ene34916 0.0 1046147
19:00−37ene34909 0.0 104739
22:00−37e34911 0.0 104868
27 january, wed
wed2701:00−37e34880 0.0 104847
04:00−37ese348719 0.0 104849
07:00−35ese348634 0.0 104869
10:00−33se468584 0.0 1048110
13:00−28sse478591 0.0 1046236
16:00−24sse4889100 0.0 1043259
19:00−23sse4892100 0.0 1041255
22:00−20s61097100 0.1 1039314